Regional Weather Roundup
Issued by NWS Kansas City/Pleasant Hill, MO

Home | Current Version | Previous Version | Graphics & Text | Print | Product List | Glossary Off
Versions: 1 2 3 4 5 6 7 8 9 10 11 12 13 14 15 16 17 18 19 20 21 22 23 24 25 26 27 28 29 30 31 32 33 34 35 36 37 38 39 40 41 42 43 44 45 46 47 48 49 50

000
ASUS43 KEAX 241604
RWREAX

WEATHER ROUNDUP FOR EASTERN KANSAS AND NORTHWEST MISSOURI
NATIONAL WEATHER SERVICE KANSAS CITY/PLEASANT HILL MO
1100 AM CDT FRI OCT 24 2014

KSZ040-057-103>105-MOZ028-029-037-043-241700-
...KANSAS CITY METROPOLITAN AREA...

CITY           SKY/WX    TMP DP  RH WIND       PRES   REMARKS
K.C. INTL      CLOUDY    62  59  90 SW9       30.04S
K.C. DOWNTOWN  PTSUNNY   66  58  75 SW8       30.04F
LEES SUMMIT    PTSUNNY   62  57  83 SW12      30.06F
OLATHE - IXD   PTSUNNY   63  59  87 S13       30.06F
OLATHE - OJC   PTSUNNY   63  59  87 SW10      30.05S
LAWRENCE       CLOUDY    61  58  90 S7        30.05S FOG

$$

MOZ001>008-011>017-020>025-030>033-038>040-044>046-053-054-241700-
...NORTHERN AND CENTRAL MISSOURI...

CITY           SKY/WX    TMP DP  RH WIND       PRES   REMARKS
ST. JOSEPH     CLOUDY    63  60  90 S10       30.02F
MOSBY          CLOUDY    59  59 100 S5        30.06R
WHITEMAN AFB   MOSUNNY   65  56  74 S9        30.08S
CLINTON        PTSUNNY   63  57  82 S7        30.09F HAZE
SEDALIA        PTSUNNY   66  56  70 S13       30.10S
WARSAW         NOT AVBL
MARSHALL       PTSUNNY   66  61  82 S9        30.09F
CHILLICOTHE      N/A     60  59  96 S6        30.06F
KIRKSVILLE     FOG       58  58 100 S9        30.08F VSB 1/4

$$

MOZ041-047>049-056>058-063>065-088>090-097-241700-
...EASTERN AND SOUTHERN MISSOURI...

CITY           SKY/WX    TMP DP  RH WIND       PRES   REMARKS
ST. LOUIS INTL PTSUNNY   63  55  75 W3        30.13S
SPIRIT OF STL  PTSUNNY   63  55  75 CALM      30.12S
COLUMBIA       PTSUNNY   63  59  87 SW7       30.11F
JEFFERSON CITY MOSUNNY   64  57  78 S6        30.11F
ROLLA          PTSUNNY   61  54  77 W6        30.12S
OSAGE BEACH    CLOUDY    64  54  68 SW7       30.13S
SPRINGFIELD    MOSUNNY   64  57  78 SW6       30.13S
BRANSON        CLOUDY    64  57  77 CALM      30.16S
NEVADA         CLOUDY    63  55  77 SW8       30.11F
JOPLIN         MOSUNNY   65  56  72 SW12      30.12S
WEST PLAINS    MOSUNNY   63  53  70 SW6       30.16S

$$

IAZ060-094-KSZ022-034>040-054-083-096-NEZ052-066-093-241700-
...KANSAS...SOUTHEAST NEBRASKA AND IOWA...

CITY           SKY/WX    TMP DP  RH WIND       PRES   REMARKS
TOPEKA         PTSUNNY   65  61  87 SW8       30.04R
MANHATTAN      CLOUDY    66  61  84 SW12      30.02R
EMPORIA        CLOUDY    65  60  84 S12       30.05S
CHANUTE        PTSUNNY   65  58  78 S16       30.09S
WICHITA        PTSUNNY   67  59  75 SW12      30.07S
OMAHA          CLOUDY    64  59  83 S8        29.95R
LINCOLN        CLOUDY    65  59  81 SW13      29.96S HAZE
FALLS CITY     CLOUDY    65  60  84 S10       29.99S
LAMONI         FOG       58  58 100 S9        30.01F VSB 1
DES MOINES     CLOUDY    62  60  93 S14       29.97S FOG

$$




USA.gov is the U.S. government's official web portal to all federal, state and local government web resources and services.